Location: Allentsteig
(48.6833°N, 15.3167°E)
Time: 08:30:03
(UTC+00:00)

Cosmos 2298 Rocket - Pass Details

Date: 19 January 2021
Orbit: 775 x 784 km, 74.0° (Epoch: 24 February)

Event Time Altitude Azimuth Distance (km) Brightness Sun altitude
Exits shadow 04:19:17 - 350° (N) 2,657 6.6 -23.3°
Reaches altitude 10° 04:20:14 10° 356° (N) 2,353 6.4 -23.1°
Maximum altitude 04:24:42 26° 52° (NE) 1,507 6.0 -22.4°
Drops below altitude 10° 04:29:08 10° 109° (ESE) 2,343 7.6 -21.6°
Sets 04:31:53 0° 122° (ESE) 3,267 8.4 -21.2°
